Time,TemperatureF,DewpointF,PressureIn,WindDirection,WindDirectionDegrees,WindSpeedMPH,WindSpeedGustMPH,Humidity,HourlyPrecipIn,Conditions,Clouds,dailyrainin,SolarRadiationWatts/m^2,SoftwareType,DateUTC
2013-06-07 00:03:00,60.0,60.0,-100.00,SSE,161,2.0,6.0,100,0.00,,,0.19,0.000000,,2013-06-07 04:03:00,
2013-06-07 00:33:00,60.0,60.0,-100.00,SSE,149,3.0,6.0,100,0.00,,,0.14,0.000000,,2013-06-07 04:33:00,
2013-06-07 00:42:00,60.0,60.0,-100.00,SSE,149,3.0,6.0,100,0.00,,,0.14,0.000000,,2013-06-07 04:42:00,
2013-06-07 00:53:00,60.0,60.0,-100.00,SSE,149,3.0,6.0,100,0.00,,,0.14,0.000000,,2013-06-07 04:53:00,
2013-06-07 01:03:00,60.0,60.0,-100.00,SSE,149,3.0,6.0,100,0.00,,,0.14,0.000000,,2013-06-07 05:03:00,
2013-06-07 01:32:00,60.0,60.0,-100.00,SSE,151,2.0,7.0,100,0.00,,,0.06,0.000000,,2013-06-07 05:32:00,
2013-06-07 01:43:00,60.0,60.0,-100.00,SSE,151,2.0,7.0,100,0.00,,,0.06,0.000000,,2013-06-07 05:43:00,
2013-06-07 01:52:00,60.0,60.0,-100.00,SSE,151,2.0,7.0,100,0.00,,,0.06,0.000000,,2013-06-07 05:52:00,
2013-06-07 02:02:00,60.0,60.0,-100.00,SSE,151,2.0,7.0,100,0.00,,,0.06,0.000000,,2013-06-07 06:02:00,
2013-06-07 02:32:00,60.0,60.0,-100.00,ESE,121,2.0,6.0,100,0.00,,,0.05,0.000000,,2013-06-07 06:32:00,
2013-06-07 02:43:00,60.0,60.0,-100.00,ESE,121,2.0,6.0,100,0.00,,,0.05,0.000000,,2013-06-07 06:43:00,
2013-06-07 02:52:00,60.0,60.0,-100.00,ESE,121,2.0,6.0,100,0.00,,,0.05,0.000000,,2013-06-07 06:52:00,
2013-06-07 03:02:00,60.0,60.0,-100.00,ESE,121,2.0,6.0,100,0.00,,,0.05,0.000000,,2013-06-07 07:02:00,
2013-06-07 03:32:00,60.0,60.0,-100.00,NNE,27,2.0,4.0,100,0.00,,,0.05,0.000000,,2013-06-07 07:32:00,
2013-06-07 03:42:00,60.0,60.0,-100.00,NNE,27,2.0,4.0,100,0.00,,,0.05,0.000000,,2013-06-07 07:42:00,
2013-06-07 03:52:00,60.0,60.0,-100.00,NNE,27,2.0,4.0,100,0.00,,,0.05,0.000000,,2013-06-07 07:52:00,
2013-06-07 04:02:00,60.0,60.0,-100.00,NNE,27,2.0,4.0,100,0.00,,,0.05,0.000000,,2013-06-07 08:02:00,
2013-06-07 04:32:00,60.0,60.0,-100.00,NNE,22,1.0,5.0,100,0.01,,,0.06,0.000000,,2013-06-07 08:32:00,
2013-06-07 04:43:00,60.0,60.0,-100.00,NNE,22,1.0,5.0,100,0.01,,,0.06,0.000000,,2013-06-07 08:43:00,
2013-06-07 04:52:00,60.0,60.0,-100.00,NNE,22,1.0,5.0,100,0.01,,,0.06,0.000000,,2013-06-07 08:52:00,
2013-06-07 05:02:00,60.0,60.0,-100.00,NNE,22,1.0,5.0,100,0.01,,,0.06,0.000000,,2013-06-07 09:02:00,
2013-06-07 05:32:00,60.0,60.0,-100.00,NNW,334,1.0,3.0,100,0.00,,,0.06,0.000000,,2013-06-07 09:32:00,
2013-06-07 05:43:00,60.0,60.0,-100.00,NNW,334,1.0,3.0,100,0.00,,,0.06,0.000000,,2013-06-07 09:43:00,
2013-06-07 05:53:00,60.0,60.0,-100.00,NNW,334,1.0,3.0,100,0.00,,,0.06,0.000000,,2013-06-07 09:53:00,
2013-06-07 06:03:00,60.0,60.0,-100.00,NNW,334,1.0,3.0,100,0.00,,,0.06,0.000000,,2013-06-07 10:03:00,
2013-06-07 06:33:00,60.0,60.0,-100.00,NW,304,2.0,5.0,100,0.00,,,0.06,0.000000,,2013-06-07 10:33:00,
2013-06-07 06:43:00,60.0,60.0,-100.00,NW,304,2.0,5.0,100,0.00,,,0.06,0.000000,,2013-06-07 10:43:00,
2013-06-07 06:53:00,60.0,60.0,-100.00,NW,304,2.0,5.0,100,0.00,,,0.06,0.000000,,2013-06-07 10:53:00,
2013-06-07 07:02:00,60.0,60.0,-100.00,NW,304,2.0,5.0,100,0.00,,,0.06,0.000000,,2013-06-07 11:02:00,
2013-06-07 07:32:00,60.0,60.0,-100.00,WNW,300,1.0,6.0,100,0.01,,,0.07,2.000000,,2013-06-07 11:32:00,
2013-06-07 07:42:00,60.0,60.0,-100.00,WNW,300,1.0,6.0,100,0.01,,,0.07,2.000000,,2013-06-07 11:42:00,
2013-06-07 07:52:00,60.0,60.0,-100.00,WNW,300,1.0,6.0,100,0.01,,,0.07,2.000000,,2013-06-07 11:52:00,
2013-06-07 08:02:00,60.0,60.0,-100.00,WNW,300,1.0,6.0,100,0.01,,,0.07,2.000000,,2013-06-07 12:02:00,
2013-06-07 08:33:00,61.0,61.0,-100.00,NW,322,1.0,5.0,100,0.01,,,0.08,35.000000,,2013-06-07 12:33:00,
2013-06-07 08:42:00,61.0,61.0,-100.00,NW,322,1.0,5.0,100,0.01,,,0.08,35.000000,,2013-06-07 12:42:00,
2013-06-07 08:52:00,61.0,61.0,-100.00,NW,322,1.0,5.0,100,0.01,,,0.08,35.000000,,2013-06-07 12:52:00,
2013-06-07 09:02:00,61.0,61.0,-100.00,NW,322,1.0,5.0,100,0.01,,,0.08,35.000000,,2013-06-07 13:02:00,
2013-06-07 09:32:00,61.0,61.0,-100.00,WNW,284,2.0,7.0,100,0.00,,,0.08,78.000000,,2013-06-07 13:32:00,
2013-06-07 09:43:00,61.0,61.0,-100.00,WNW,284,2.0,7.0,100,0.00,,,0.08,78.000000,,2013-06-07 13:43:00,
2013-06-07 09:52:00,61.0,61.0,-100.00,WNW,284,2.0,7.0,100,0.00,,,0.08,78.000000,,2013-06-07 13:52:00,
2013-06-07 10:02:00,61.0,61.0,-100.00,WNW,284,2.0,7.0,100,0.00,,,0.08,78.000000,,2013-06-07 14:02:00,
2013-06-07 10:33:00,62.0,62.0,-100.00,NNW,343,2.0,6.0,100,0.00,,,0.08,90.000000,,2013-06-07 14:33:00,
2013-06-07 10:42:00,62.0,62.0,-100.00,NNW,343,2.0,6.0,100,0.00,,,0.08,90.000000,,2013-06-07 14:42:00,
2013-06-07 10:52:00,62.0,62.0,-100.00,NNW,343,2.0,6.0,100,0.00,,,0.08,90.000000,,2013-06-07 14:52:00,
2013-06-07 11:03:00,62.0,62.0,-100.00,NNW,343,2.0,6.0,100,0.00,,,0.08,90.000000,,2013-06-07 15:03:00,
2013-06-07 11:33:00,62.0,62.0,-100.00,SW,234,4.0,7.0,100,0.00,,,-99.99,117.000000,,2013-06-07 15:33:00,
2013-06-07 11:43:00,62.0,62.0,-100.00,SW,234,4.0,7.0,100,0.00,,,-99.99,117.000000,,2013-06-07 15:43:00,
2013-06-07 11:53:00,62.0,62.0,-100.00,SW,234,4.0,7.0,100,0.00,,,-99.99,117.000000,,2013-06-07 15:53:00,
2013-06-07 12:03:00,62.0,62.0,-100.00,SW,234,4.0,7.0,100,0.00,,,-99.99,117.000000,,2013-06-07 16:03:00,
2013-06-07 12:33:00,65.0,65.0,-100.00,SSW,212,3.0,9.0,100,0.00,,,0.08,245.000000,,2013-06-07 16:33:00,
2013-06-07 12:43:00,65.0,65.0,-100.00,SSW,212,3.0,9.0,100,0.00,,,0.08,245.000000,,2013-06-07 16:43:00,
2013-06-07 12:53:00,65.0,65.0,-100.00,SSW,212,3.0,9.0,100,0.00,,,0.08,245.000000,,2013-06-07 16:53:00,
2013-06-07 13:03:00,65.0,65.0,-100.00,SSW,212,3.0,9.0,100,0.00,,,0.08,245.000000,,2013-06-07 17:03:00,
2013-06-07 13:05:00,72.0,66.0,-100.00,SW,236,4.0,8.0,82,0.00,,,0.08,885.000000,,2013-06-07 17:05:00,
2013-06-07 13:32:00,72.0,66.0,-100.00,SW,236,4.0,8.0,82,0.00,,,0.08,885.000000,,2013-06-07 17:32:00,
2013-06-07 13:43:00,72.0,66.0,-100.00,SW,236,4.0,8.0,82,0.00,,,0.08,885.000000,,2013-06-07 17:43:00,
2013-06-07 13:53:00,72.0,66.0,-100.00,SW,236,4.0,8.0,82,0.00,,,0.08,885.000000,,2013-06-07 17:53:00,
2013-06-07 14:05:00,74.0,64.0,-100.00,WSW,255,4.0,10.0,70,0.00,,,0.08,1004.000000,,2013-06-07 18:05:00,
2013-06-07 14:38:00,74.0,64.0,-100.00,WSW,255,4.0,10.0,70,0.00,,,0.08,1004.000000,,2013-06-07 18:38:00,
2013-06-07 14:45:00,74.0,64.0,-100.00,WSW,255,4.0,10.0,70,0.00,,,0.08,1004.000000,,2013-06-07 18:45:00,
2013-06-07 15:01:00,74.0,64.0,-100.00,WSW,255,4.0,10.0,70,0.00,,,0.08,1004.000000,,2013-06-07 19:01:00,
2013-06-07 15:05:00,75.0,62.0,-100.00,West,260,4.0,9.0,65,0.00,,,0.07,989.000000,,2013-06-07 19:05:00,
2013-06-07 15:40:00,75.0,62.0,-100.00,West,260,4.0,9.0,65,0.00,,,0.07,989.000000,,2013-06-07 19:40:00,
2013-06-07 15:51:00,75.0,62.0,-100.00,West,260,4.0,9.0,65,0.00,,,0.07,989.000000,,2013-06-07 19:51:00,
2013-06-07 15:59:00,75.0,62.0,-100.00,West,260,4.0,9.0,65,0.00,,,0.07,989.000000,,2013-06-07 19:59:00,
2013-06-07 16:42:00,70.0,57.0,-100.00,SW,219,4.0,10.0,63,0.00,,,0.05,639.000000,,2013-06-07 20:42:00,
2013-06-07 16:52:00,70.0,57.0,-100.00,SW,219,4.0,10.0,63,0.00,,,0.05,639.000000,,2013-06-07 20:52:00,
2013-06-07 16:59:00,70.0,57.0,-100.00,SW,219,4.0,10.0,63,0.00,,,0.05,639.000000,,2013-06-07 20:59:00,
2013-06-07 17:05:00,74.0,63.0,-100.00,North,4,3.0,7.0,68,0.00,,,0.03,356.000000,,2013-06-07 21:05:00,
2013-06-07 17:43:00,74.0,63.0,-100.00,North,4,3.0,7.0,68,0.00,,,0.03,356.000000,,2013-06-07 21:43:00,
2013-06-07 18:03:00,74.0,63.0,-100.00,North,4,3.0,7.0,68,0.00,,,0.03,356.000000,,2013-06-07 22:03:00,
2013-06-07 18:05:00,70.0,55.0,-100.00,SW,224,2.0,6.0,59,0.00,,,0.03,313.000000,,2013-06-07 22:05:00,
2013-06-07 18:39:00,70.0,55.0,-100.00,SW,224,2.0,6.0,59,0.00,,,0.03,313.000000,,2013-06-07 22:39:00,
2013-06-07 18:49:00,70.0,55.0,-100.00,SW,224,2.0,6.0,59,0.00,,,0.03,313.000000,,2013-06-07 22:49:00,
2013-06-07 19:00:00,70.0,55.0,-100.00,SW,224,2.0,6.0,59,0.00,,,0.03,313.000000,,2013-06-07 23:00:00,
2013-06-07 19:05:00,63.0,55.0,-100.00,WSW,245,3.0,7.0,74,0.00,,,0.03,27.000000,,2013-06-07 23:05:00,
2013-06-07 19:41:00,63.0,55.0,-100.00,WSW,245,3.0,7.0,74,0.00,,,0.03,27.000000,,2013-06-07 23:41:00,
2013-06-07 20:05:00,59.0,58.0,-100.00,NNE,28,2.0,5.0,98,0.14,,,0.17,14.000000,,2013-06-08 00:05:00,
2013-06-07 20:32:00,59.0,58.0,-100.00,NNE,28,2.0,5.0,98,0.14,,,0.17,14.000000,,2013-06-08 00:32:00,
2013-06-07 20:48:00,59.0,58.0,-100.00,NNE,28,2.0,5.0,98,0.14,,,0.17,14.000000,,2013-06-08 00:48:00,
2013-06-07 21:02:00,59.0,58.0,-100.00,NNE,28,2.0,5.0,98,0.14,,,0.17,14.000000,,2013-06-08 01:02:00,
2013-06-07 21:05:00,58.0,58.0,-100.00,West,275,3.0,7.0,100,0.01,,,0.18,22.000000,,2013-06-08 01:05:00,
2013-06-07 21:40:00,58.0,58.0,-100.00,West,275,3.0,7.0,100,0.01,,,0.18,22.000000,,2013-06-08 01:40:00,
2013-06-07 21:49:00,58.0,58.0,-100.00,West,275,3.0,7.0,100,0.01,,,0.18,22.000000,,2013-06-08 01:49:00,
2013-06-07 22:03:00,58.0,58.0,-100.00,West,275,3.0,7.0,100,0.01,,,0.18,22.000000,,2013-06-08 02:03:00,
2013-06-07 22:37:00,58.0,58.0,-100.00,North,2,2.0,7.0,100,0.00,,,0.18,0.000000,,2013-06-08 02:37:00,
2013-06-07 22:49:00,58.0,58.0,-100.00,North,2,2.0,7.0,100,0.00,,,0.18,0.000000,,2013-06-08 02:49:00,
2013-06-07 23:00:00,58.0,58.0,-100.00,North,2,2.0,7.0,100,0.00,,,0.18,0.000000,,2013-06-08 03:00:00,
2013-06-07 23:40:00,57.0,57.0,-100.00,NE,35,2.0,6.0,99,0.00,,,0.18,0.000000,,2013-06-08 03:40:00,